Tracking 22440 objects as of 27-Feb-2021
HD Live streaming from Space Station
objects crossing your sky now

FREGAT DEB

Track FREGAT DEB now!
10-day predictions


NORAD ID: 45816
Int'l Code: 2011-037BA
Perigee: 447.1 km
Apogee: 3,684.6 km
Inclination: 51.5 °
Period: 128.5 minutes
Semi major axis: 8436 km
RCS: Unknown
Launch date: July 18, 2011
Source: Commonwealth of Independent States (former USSR) (CIS)
Launch site: TYURATAM MISSILE AND SPACE COMPLEX (TTMTR)

Note: This is SATELLITE DEBRIS
aabbcc
Your satellite tracking list
Your tracking list is empty




NASA's NSSDC Master Catalog

Two Line Element Set (TLE):
1 45816U 11037BA  21057.45503242  .00001553  00000-0  40763-3 0  9993
2 45816  51.4875  75.9849 1918624 184.5455 173.5351 11.20297007 30064
Source of the keplerian elements: AFSPC